When you browse on this site, cookies collect data to enhance your experience and personalize the content and advertising you see.
Visit our Privacy Policy to learn more. By continuing to use the site, you agree to this use of cookies and data.
  • In Austria
  • List of Countries
  • For 7 days
  • Water Temperature
  • Weather Map
  • News
  • Weather Widgets
  • user-avatar
    Login

    Hourly Weather Brisbane

    Today, 22 October, Tuesday

    Time Temperature Precipitation Wind Pressure Humidity
    00:00 +18°C° 0 mm 2 mps 766 mmHg 72%
    01:00 +17°C° 0 mm 2 mps 766 mmHg 72%
    02:00 +17°C° 0 mm 2 mps 766 mmHg 72%
    03:00 +17°C° 0 mm 2 mps 766 mmHg 72%
    04:00 +18°C° 0 mm 1 mps 766 mmHg 75%
    05:00 +19°C° 0 mm 1 mps 766 mmHg 71%
    06:00 +19°C° 0 mm 2 mps 766 mmHg 68%
    07:00 +19°C° 0 mm 2 mps 766 mmHg 64%
    08:00 +21°C° 0 mm 2 mps 766 mmHg 57%
    09:00 +24°C° 0 mm 2 mps 766 mmHg 51%
    10:00 +26°C° 0 mm 2 mps 766 mmHg 44%
    11:00 +26°C° 0 mm 2 mps 766 mmHg 44%
    12:00 +26°C° 0 mm 3 mps 765 mmHg 45%
    13:00 +26°C° 0 mm 3 mps 764 mmHg 45%
    14:00 +26°C° 0 mm 3 mps 764 mmHg 47%
    15:00 +26°C° 0 mm 4 mps 764 mmHg 49%
    16:00 +25°C° 0 mm 3 mps 764 mmHg 50%
    17:00 +24°C° 0 mm 3 mps 765 mmHg 57%
    18:00 +21°C° 0 mm 3 mps 765 mmHg 64%
    19:00 +20°C° 0 mm 3 mps 765 mmHg 71%
    20:00 +19°C° 0 mm 2 mps 766 mmHg 73%
    21:00 +19°C° 0 mm 2 mps 766 mmHg 76%
    22:00 +20°C° 0 mm 1 mps 766 mmHg 80%
    23:00 +19°C° 0 mm 1 mps 766 mmHg 81%

    Tomorrow, 23 October, Wednesday

    Time Temperature Precipitation Wind Pressure Humidity
    00:00 +19°C° 0 mm 1 mps 766 mmHg 81%
    01:00 +19°C° 0 mm 1 mps 765 mmHg 82%
    02:00 +19°C° 0 mm 1 mps 765 mmHg 83%
    03:00 +18°C° 0 mm 1 mps 765 mmHg 83%
    04:00 +18°C° 0 mm 1 mps 765 mmHg 84%
    05:00 +19°C° 0 mm 1 mps 766 mmHg 79%
    06:00 +20°C° 0 mm 1 mps 766 mmHg 75%
    07:00 +21°C° 0 mm 1 mps 766 mmHg 70%
    08:00 +23°C° 0 mm 2 mps 766 mmHg 60%
    09:00 +25°C° 0 mm 2 mps 766 mmHg 51%
    10:00 +27°C° 0 mm 3 mps 766 mmHg 42%
    11:00 +27°C° 0 mm 3 mps 765 mmHg 40%
    12:00 +28°C° 0 mm 3 mps 765 mmHg 38%
    13:00 +28°C° 0 mm 4 mps 764 mmHg 36%
    14:00 +27°C° 0 mm 4 mps 764 mmHg 38%
    15:00 +27°C° 0 mm 4 mps 764 mmHg 41%
    16:00 +26°C° 0 mm 4 mps 764 mmHg 44%
    17:00 +24°C° 0 mm 3 mps 764 mmHg 52%
    18:00 +21°C° 0 mm 3 mps 764 mmHg 60%
    19:00 +19°C° 0 mm 2 mps 765 mmHg 68%
    20:00 +19°C° 0 mm 2 mps 765 mmHg 71%
    21:00 +18°C° 0 mm 2 mps 765 mmHg 75%
    22:00 +19°C° 0 mm 1 mps 766 mmHg 78%
    23:00 +19°C° 0 mm 1 mps 765 mmHg 80%

    Day after tomorrow, 24 October, Thursday

    Time Temperature Precipitation Wind Pressure Humidity
    00:00 +18°C° 0 mm 1 mps 765 mmHg 81%
    01:00 +18°C° 0 mm 1 mps 764 mmHg 83%
    02:00 +16°C° 0 mm 1 mps 764 mmHg 83%
    03:00 +16°C° 0 mm 1 mps 764 mmHg 84%
    04:00 +16°C° 0 mm 1 mps 764 mmHg 84%
    05:00 +18°C° 0 mm 1 mps 764 mmHg 79%
    06:00 +20°C° 0 mm 1 mps 764 mmHg 74%
    07:00 +21°C° 0 mm 1 mps 764 mmHg 69%
    08:00 +23°C° 0 mm 1 mps 764 mmHg 59%
    09:00 +26°C° 0 mm 1 mps 764 mmHg 49%
    10:00 +29°C° 0 mm 1 mps 764 mmHg 39%
    11:00 +29°C° 0 mm 2 mps 763 mmHg 37%
    12:00 +30°C° 0 mm 2 mps 763 mmHg 35%
    13:00 +30°C° 0 mm 3 mps 762 mmHg 33%
    14:00 +29°C° 0 mm 4 mps 762 mmHg 38%
    15:00 +28°C° 0 mm 4 mps 762 mmHg 43%
    16:00 +27°C° 0 mm 4 mps 761 mmHg 47%
    17:00 +25°C° 0 mm 4 mps 762 mmHg 55%
    18:00 +22°C° 0 mm 4 mps 762 mmHg 62%
    19:00 +20°C° 0 mm 3 mps 763 mmHg 69%
    20:00 +19°C° 0 mm 3 mps 763 mmHg 72%
    21:00 +19°C° 0 mm 2 mps 764 mmHg 75%
    22:00 +18°C° 0 mm 2 mps 764 mmHg 77%
    23:00 +18°C° 0 mm 2 mps 764 mmHg 79%

    25 October, Friday

    Time Temperature Precipitation Wind Pressure Humidity
    00:00 +18°C° 0 mm 1 mps 763 mmHg 80%
    01:00 +18°C° 0 mm 1 mps 763 mmHg 81%
    02:00 +18°C° 0 mm 1 mps 763 mmHg 81%
    03:00 +16°C° 0 mm 1 mps 763 mmHg 82%
    04:00 +16°C° 0 mm 1 mps 762 mmHg 82%
    05:00 +18°C° 0 mm 1 mps 763 mmHg 77%
    06:00 +20°C° 0 mm 1 mps 763 mmHg 71%
    07:00 +21°C° 0 mm 1 mps 763 mmHg 65%
    08:00 +24°C° 0 mm 1 mps 763 mmHg 56%
    09:00 +26°C° 0 mm 2 mps 763 mmHg 46%
    10:00 +28°C° 0 mm 2 mps 763 mmHg 36%
    11:00 +29°C° 0 mm 2 mps 762 mmHg 35%
    12:00 +30°C° 0 mm 3 mps 761 mmHg 33%
    13:00 +30°C° 0 mm 4 mps 761 mmHg 32%
    14:00 +29°C° 0 mm 4 mps 760 mmHg 37%
    15:00 +28°C° 0 mm 4 mps 760 mmHg 41%
    16:00 +27°C° 0 mm 5 mps 759 mmHg 46%
    17:00 +25°C° 0 mm 4 mps 760 mmHg 53%
    18:00 +22°C° 0 mm 4 mps 760 mmHg 60%
    19:00 +20°C° 0 mm 4 mps 761 mmHg 67%
    20:00 +20°C° 0 mm 4 mps 761 mmHg 71%
    21:00 +19°C° 0 mm 3 mps 761 mmHg 74%
    22:00 +18°C° 0 mm 3 mps 761 mmHg 77%
    23:00 +18°C° 0 mm 3 mps 761 mmHg 78%

    26 October, Saturday

    Time Temperature Precipitation Wind Pressure Humidity
    00:00 +18°C° 0 mm 2 mps 760 mmHg 80%
    01:00 +17°C° 0 mm 2 mps 760 mmHg 82%
    02:00 +17°C° 0 mm 2 mps 760 mmHg 83%
    03:00 +17°C° 0 mm 2 mps 760 mmHg 85%
    04:00 +17°C° 0 mm 2 mps 760 mmHg 86%
    05:00 +18°C° 0 mm 2 mps 760 mmHg 81%
    06:00 +19°C° 0 mm 2 mps 760 mmHg 76%
    07:00 +21°C° 0 mm 2 mps 761 mmHg 71%
    08:00 +24°C° 0 mm 3 mps 760 mmHg 61%
    09:00 +26°C° 0 mm 3 mps 760 mmHg 52%
    10:00 +29°C° 0 mm 3 mps 760 mmHg 42%
    11:00 +30°C° 0 mm 3 mps 759 mmHg 41%
    12:00 +30°C° 0 mm 4 mps 759 mmHg 39%
    13:00 +32°C° 0 mm 5 mps 758 mmHg 38%
    14:00 +30°C° 0 mm 5 mps 758 mmHg 42%
    15:00 +29°C° 0 mm 5 mps 757 mmHg 46%
    16:00 +28°C° 0 mm 6 mps 757 mmHg 50%
    17:00 +26°C° 0 mm 6 mps 757 mmHg 57%
    18:00 +23°C° 0 mm 6 mps 757 mmHg 64%
    19:00 +22°C° 0 mm 5 mps 758 mmHg 70%
    20:00 +21°C° 0 mm 5 mps 758 mmHg 71%
    21:00 +21°C° 0 mm 5 mps 758 mmHg 72%
    22:00 +20°C° 0 mm 4 mps 758 mmHg 72%
    23:00 +20°C° 0 mm 4 mps 758 mmHg 73%

    27 October, Sunday

    Time Temperature Precipitation Wind Pressure Humidity
    00:00 +19°C° 0 mm 3 mps 758 mmHg 73%
    01:00 +19°C° 0 mm 3 mps 757 mmHg 74%
    02:00 +19°C° 0 mm 3 mps 757 mmHg 75%
    03:00 +18°C° 0 mm 2 mps 757 mmHg 76%
    04:00 +18°C° 0 mm 2 mps 758 mmHg 77%
    05:00 +19°C° 0 mm 2 mps 758 mmHg 72%
    06:00 +21°C° 0 mm 2 mps 758 mmHg 67%
    07:00 +23°C° 0 mm 2 mps 759 mmHg 61%
    08:00 +26°C° 0 mm 2 mps 759 mmHg 54%
    09:00 +28°C° 0 mm 2 mps 758 mmHg 47%
    10:00 +31°C° 0 mm 2 mps 758 mmHg 40%
    11:00 +33°C° 0 mm 3 mps 758 mmHg 38%
    12:00 +34°C° 0 mm 4 mps 757 mmHg 36%
    13:00 +35°C° 0 mm 5 mps 757 mmHg 34%
    14:00 +33°C° 0 mm 5 mps 756 mmHg 41%
    15:00 +30°C° 0 mm 5 mps 756 mmHg 48%
    16:00 +28°C° 0 mm 5 mps 755 mmHg 55%
    17:00 +27°C° 0 mm 5 mps 756 mmHg 62%
    18:00 +25°C° 0 mm 5 mps 757 mmHg 69%
    19:00 +23°C° 0 mm 5 mps 757 mmHg 77%
    20:00 +22°C° 0 mm 4 mps 758 mmHg 80%
    21:00 +22°C° 0 mm 3 mps 759 mmHg 83%
    22:00 +21°C° 0 mm 2 mps 759 mmHg 86%
    23:00 +21°C° 0 mm 2 mps 759 mmHg 87%

    28 October, Monday

    Time Temperature Precipitation Wind Pressure Humidity
    00:00 +20°C° 0 mm 2 mps 759 mmHg 88%
    01:00 +20°C° 0 mm 2 mps 759 mmHg 89%
    02:00 +19°C° 0 mm 2 mps 759 mmHg 88%
    03:00 +19°C° 0 mm 2 mps 759 mmHg 87%
    04:00 +19°C° 0 mm 2 mps 759 mmHg 86%
    05:00 +20°C° 0 mm 2 mps 760 mmHg 81%
    06:00 +21°C° 0 mm 2 mps 760 mmHg 76%
    07:00 +23°C° 0 mm 2 mps 761 mmHg 71%
    08:00 +25°C° 0 mm 2 mps 761 mmHg 64%
    09:00 +27°C° 0 mm 2 mps 760 mmHg 57%
    10:00 +29°C° 0 mm 3 mps 760 mmHg 50%
    11:00 +30°C° 0 mm 3 mps 760 mmHg 47%
    12:00 +30°C° 0 mm 4 mps 760 mmHg 44%
    13:00 +32°C° 0 mm 5 mps 760 mmHg 42%
    14:00 +30°C° 0 mm 5 mps 760 mmHg 46%
    15:00 +29°C° 0 mm 6 mps 760 mmHg 50%
    16:00 +28°C° 0 mm 7 mps 760 mmHg 55%
    17:00 +26°C° 0 mm 6 mps 761 mmHg 60%
    18:00 +23°C° 0 mm 6 mps 761 mmHg 66%
    19:00 +22°C° 0 mm 6 mps 762 mmHg 71%
    20:00 +22°C° 0 mm 5 mps 763 mmHg 72%
    21:00 +21°C° 0 mm 5 mps 763 mmHg 73%
    22:00 +21°C° 0 mm 4 mps 764 mmHg 74%
    23:00 +20°C° 0 mm 4 mps 763 mmHg 75%
    Show more